Westhampton Beach, NY

8:34 AM EDT on August 19, 2017 (GMT -0400)
The Gabreski

Weather History for KFOK - October, 2012

Change the Weather History Date:

Saturday, October 6, 2012

  Actual Average Record
Temperature  
Mean Temperature 60 °F -  
Max Temperature 70 °F 64 °F 82 °F (1997)
Min Temperature 53 °F 43 °F 28 °F (2003)
Degree Days  
Heating Degree Days 6    
Growing Degree Days 10 (Base 50)    
Moisture  
Dew Point 53 °F    
Average Humidity 91    
Maximum Humidity 94    
Minimum Humidity 84    
Precipitation  
Precipitation 0.00 in - - ()
Sea Level Pressure  
Sea Level Pressure 29.91 in    
Wind  
Wind Speed 0 mph (SSW)    
Max Wind Speed 7 mph    
Max Gust Speed -    
Visibility 4 miles    
Events Fog    
Averages and records for this station are not official NWS values.
T = Trace of Precipitation, MM = Missing Value Source: NWS Daily Summary

Daily Weather History Graph

Daily Weather History Graph

Search for Another Location

Airport or City:

Trip Planner

Search our weather history database for the weather conditions in past years. The results will help you decide how hot, cold, wet, or windy it might be!

Date:

Astronomy

Oct. 06, 2012 Rise Set
Actual Time 6:52 AM EDT 6:23 PM EDT
Civil Twilight 6:25 AM EDT 6:50 PM EDT
Nautical Twilight 5:53 AM EDT 7:22 PM EDT
Astronomical Twilight 5:21 AM EDT 7:54 PM EDT
Moon 10:34 PM EDT (10/6) 12:46 PM EDT (10/6)
Length of Visible Light 12h 25m
Length of Day
11h 30m
Waning Gibbous, 65% of the Moon is Illuminated
Oct 6
Waning Gibbous
Oct 8
Last Quarter
Oct 15
New
Oct 21
First Quarter
Oct 29
Full

Hourly Weather History & Observations

Time (EDT) Temp. Dew Point Humidity Pressure Visibility Wind Dir Wind Speed Gust Speed Precip Events Conditions
12:06 AM 57.2 °F 53.6 °F 88% 29.96 in 9.0 mi Calm Calm - N/A   Scattered Clouds
12:19 AM 55.4 °F 51.8 °F 88% 29.96 in 9.0 mi Calm Calm - N/A   Mostly Cloudy
12:33 AM 55.4 °F 53.6 °F 94% 29.95 in 8.0 mi Calm Calm - N/A   Scattered Clouds
12:44 AM 57.2 °F 53.6 °F 88% 29.95 in 8.0 mi Calm Calm - N/A   Mostly Cloudy
12:53 AM 57.0 °F 54.0 °F 89% 29.95 in 9.0 mi Calm Calm - N/A   Scattered Clouds
1:53 AM 55.9 °F 53.1 °F 90% 29.93 in 5.0 mi Calm Calm - N/A   Mostly Cloudy
2:05 AM 55.4 °F 53.6 °F 94% 29.93 in 1.8 mi Calm Calm - N/A   Mostly Cloudy
2:16 AM 55.4 °F 53.6 °F 94% 29.93 in 3.0 mi Calm Calm - N/A   Mostly Cloudy
2:53 AM 54.0 °F 51.1 °F 90% 29.91 in 7.0 mi Calm Calm - N/A   Mostly Cloudy
3:08 AM 53.6 °F 51.8 °F 94% 29.91 in 7.0 mi Calm Calm - N/A   Scattered Clouds
3:53 AM 54.0 °F 52.0 °F 93% 29.91 in 6.0 mi Calm Calm - N/A   Partly Cloudy
4:05 AM 53.6 °F 51.8 °F 94% 29.91 in 2.0 mi Calm Calm - N/A   Clear
4:16 AM 53.6 °F 51.8 °F 94% 29.91 in 4.0 mi Calm Calm - N/A   Clear
4:53 AM 54.0 °F 51.1 °F 90% 29.91 in 6.0 mi Calm Calm - N/A   Clear
4:59 AM 53.6 °F 51.8 °F 94% 29.90 in 1.8 mi Calm Calm - N/A   Partly Cloudy
5:11 AM 53.6 °F 50.0 °F 88% 29.90 in 3.0 mi Calm Calm - N/A   Scattered Clouds
5:13 AM 53.6 °F 50.0 °F 88% 29.90 in 1.2 mi Calm Calm - N/A   Scattered Clouds
5:20 AM 53.6 °F 50.0 °F 88% 29.91 in 0.8 mi Calm Calm - N/A   Mist
5:25 AM 53.6 °F 50.0 °F 88% 29.91 in 2.5 mi Calm Calm - N/A   Mostly Cloudy
5:32 AM 53.6 °F 51.8 °F 94% 29.90 in 7.0 mi Calm Calm - N/A   Mostly Cloudy
5:43 AM 53.6 °F 51.8 °F 94% 29.90 in 1.8 mi Calm Calm - N/A   Mostly Cloudy
5:53 AM 54.0 °F 51.1 °F 90% 29.91 in 1.0 mi Calm Calm - N/A   Mist
5:57 AM 53.6 °F 50.0 °F 88% 29.91 in 4.0 mi Calm Calm - N/A   Overcast
6:23 AM 53.6 °F 50.0 °F 88% 29.90 in 1.5 mi Calm Calm - N/A   Mostly Cloudy
6:27 AM 53.6 °F 50.0 °F 88% 29.90 in 2.0 mi Calm Calm - N/A   Scattered Clouds
6:35 AM 53.6 °F 50.0 °F 88% 29.90 in 6.0 mi Calm Calm - N/A   Scattered Clouds
6:53 AM 53.1 °F 50.0 °F 89% 29.90 in 6.0 mi Calm Calm - N/A   Mostly Cloudy
7:06 AM 53.6 °F 51.8 °F 94% 29.90 in 1.5 mi Calm Calm - N/A   Mostly Cloudy
7:11 AM 53.6 °F 51.8 °F 94% 29.89 in 0.2 mi Calm Calm - N/A Fog Fog
7:26 AM 55.4 °F 53.6 °F 94% 29.90 in 1.0 mi Calm Calm - N/A   Mist
7:28 AM 57.2 °F 53.6 °F 88% 29.89 in 2.0 mi Calm Calm - N/A   Scattered Clouds
7:34 AM 57.2 °F 55.4 °F 94% 29.89 in 1.0 mi South 3.5 mph - N/A   Mist
7:39 AM 57.2 °F 55.4 °F 94% 29.89 in 0.8 mi South 3.5 mph - N/A   Clear
7:45 AM 62.6 °F 59.0 °F 88% 29.89 in 2.0 mi South 4.6 mph - N/A   Clear
7:53 AM 66.0 °F 63.0 °F 90% 29.89 in 5.0 mi SSW 4.6 mph - N/A   Clear
8:53 AM 70.0 °F 64.9 °F 84% 29.88 in 9.0 mi SSW 6.9 mph - N/A   Clear